Time,TemperatureF,DewpointF,PressureIn,WindDirection,WindDirectionDegrees,WindSpeedMPH,WindSpeedGustMPH,Humidity,HourlyPrecipIn,Conditions,Clouds,dailyrainin,SoftwareType,DateUTC
2013-09-16 00:09:00,57.6,55.0,30.18,NE,41,3.0,8.0,90,0.00,,,0.02,weatherlink.com 1.10,2013-09-16 05:09:00,
2013-09-16 00:22:00,57.3,55.0,30.18,North,5,5.0,7.0,90,0.00,,,0.02,weatherlink.com 1.10,2013-09-16 05:22:00,
2013-09-16 00:37:00,56.6,54.0,30.19,North,355,4.0,7.0,91,0.00,,,0.02,weatherlink.com 1.10,2013-09-16 05:37:00,
2013-09-16 00:52:00,55.8,54.0,30.18,North,360,4.0,6.0,92,0.00,,,0.02,weatherlink.com 1.10,2013-09-16 05:52:00,
2013-09-16 01:07:00,55.1,53.0,30.18,North,5,2.0,6.0,93,0.00,,,0.02,weatherlink.com 1.10,2013-09-16 06:07:00,
2013-09-16 01:22:00,54.7,53.0,30.19,North,360,3.0,5.0,94,0.00,,,0.02,weatherlink.com 1.10,2013-09-16 06:22:00,
2013-09-16 01:37:00,54.2,53.0,30.19,North,360,4.0,5.0,95,0.00,,,0.02,weatherlink.com 1.10,2013-09-16 06:37:00,
2013-09-16 01:52:00,54.7,54.0,30.19,North,5,3.0,7.0,96,0.00,,,0.02,weatherlink.com 1.10,2013-09-16 06:52:00,
2013-09-16 02:07:00,55.5,54.0,30.20,North,360,4.0,9.0,96,0.00,,,0.02,weatherlink.com 1.10,2013-09-16 07:07:00,
2013-09-16 02:22:00,56.0,54.0,30.19,North,355,4.0,7.0,94,0.00,,,0.02,weatherlink.com 1.10,2013-09-16 07:22:00,
2013-09-16 02:37:00,56.3,55.0,30.20,North,5,4.0,6.0,94,0.00,,,0.02,weatherlink.com 1.10,2013-09-16 07:37:00,
2013-09-16 02:52:00,56.4,55.0,30.19,NNE,22,1.0,7.0,93,0.00,,,0.02,weatherlink.com 1.10,2013-09-16 07:52:00,
2013-09-16 03:07:00,56.7,55.0,30.20,NNW,345,2.0,10.0,92,0.00,,,0.02,weatherlink.com 1.10,2013-09-16 08:07:00,
2013-09-16 03:22:00,56.9,55.0,30.20,NNE,25,6.0,7.0,92,0.00,,,0.02,weatherlink.com 1.10,2013-09-16 08:22:00,
2013-09-16 03:37:00,57.0,55.0,30.20,North,5,3.0,8.0,92,0.00,,,0.02,weatherlink.com 1.10,2013-09-16 08:37:00,
2013-09-16 03:52:00,57.0,55.0,30.20,NNE,15,3.0,6.0,92,0.00,,,0.02,weatherlink.com 1.10,2013-09-16 08:52:00,
2013-09-16 04:07:00,56.9,55.0,30.21,North,355,3.0,6.0,92,0.00,,,0.02,weatherlink.com 1.10,2013-09-16 09:07:00,
2013-09-16 04:22:00,56.9,55.0,30.21,North,351,4.0,6.0,92,0.00,,,0.02,weatherlink.com 1.10,2013-09-16 09:22:00,
2013-09-16 04:37:00,56.9,55.0,30.22,North,5,4.0,6.0,92,0.00,,,0.02,weatherlink.com 1.10,2013-09-16 09:37:00,
2013-09-16 04:52:00,56.9,55.0,30.23,North,360,3.0,7.0,92,0.00,,,0.02,weatherlink.com 1.10,2013-09-16 09:52:00,
2013-09-16 05:07:00,56.7,55.0,30.23,North,355,4.0,9.0,93,0.00,,,0.02,weatherlink.com 1.10,2013-09-16 10:07:00,
2013-09-16 05:22:00,56.6,55.0,30.24,North,9,7.0,10.0,93,0.00,,,0.02,weatherlink.com 1.10,2013-09-16 10:22:00,
2013-09-16 05:37:00,56.5,55.0,30.25,NNE,15,2.0,9.0,94,0.00,,,0.02,weatherlink.com 1.10,2013-09-16 10:37:00,
2013-09-16 05:52:00,56.5,55.0,30.25,North,360,3.0,8.0,94,0.00,,,0.02,weatherlink.com 1.10,2013-09-16 10:52:00,
2013-09-16 06:07:00,56.5,55.0,30.26,North,11,3.0,6.0,94,0.00,,,0.02,weatherlink.com 1.10,2013-09-16 11:07:00,
2013-09-16 06:22:00,56.6,55.0,30.27,North,5,0.0,8.0,94,0.00,,,0.02,weatherlink.com 1.10,2013-09-16 11:22:00,
2013-09-16 06:37:00,56.6,55.0,30.27,North,350,4.0,9.0,94,0.00,,,0.02,weatherlink.com 1.10,2013-09-16 11:37:00,
2013-09-16 06:52:00,56.4,55.0,30.28,North,11,4.0,7.0,94,0.00,,,0.02,weatherlink.com 1.10,2013-09-16 11:52:00,
2013-09-16 07:07:00,56.3,55.0,30.28,North,5,3.0,7.0,94,0.00,,,0.02,weatherlink.com 1.10,2013-09-16 12:07:00,
2013-09-16 07:24:00,56.5,55.0,30.28,North,349,2.0,6.0,94,0.00,,,0.02,weatherlink.com 1.10,2013-09-16 12:24:00,
2013-09-16 07:37:00,56.7,55.0,30.28,ENE,57,4.0,8.0,94,0.00,,,0.02,weatherlink.com 1.10,2013-09-16 12:37:00,
2013-09-16 07:52:00,56.9,55.0,30.29,North,360,3.0,6.0,94,0.00,,,0.02,weatherlink.com 1.10,2013-09-16 12:52:00,
2013-09-16 08:07:00,57.1,55.0,30.29,NNE,30,1.0,5.0,94,0.00,,,0.02,weatherlink.com 1.10,2013-09-16 13:07:00,
2013-09-16 08:22:00,57.6,56.0,30.29,North,5,3.0,7.0,93,0.00,,,0.02,weatherlink.com 1.10,2013-09-16 13:22:00,
2013-09-16 08:37:00,58.0,56.0,30.30,North,355,8.0,8.0,92,0.00,,,0.02,weatherlink.com 1.10,2013-09-16 13:37:00,
2013-09-16 08:52:00,58.2,56.0,30.30,NNE,24,8.0,8.0,92,0.00,,,0.02,weatherlink.com 1.10,2013-09-16 13:52:00,
2013-09-16 09:07:00,58.5,56.0,30.30,North,5,3.0,9.0,91,0.00,,,0.02,weatherlink.com 1.10,2013-09-16 14:07:00,
2013-09-16 09:22:00,58.7,56.0,30.31,NE,34,2.0,7.0,91,0.00,,,0.02,weatherlink.com 1.10,2013-09-16 14:22:00,
2013-09-16 09:37:00,59.0,56.0,30.32,NNE,13,3.0,8.0,90,0.00,,,0.02,weatherlink.com 1.10,2013-09-16 14:37:00,
2013-09-16 09:52:00,58.9,56.0,30.32,East,80,3.0,7.0,91,0.00,,,0.02,weatherlink.com 1.10,2013-09-16 14:52:00,
2013-09-16 10:08:00,59.8,57.0,30.32,NNE,20,1.0,8.0,89,0.00,,,0.02,weatherlink.com 1.10,2013-09-16 15:08:00,
2013-09-16 10:23:00,59.8,56.0,30.32,ENE,75,4.0,11.0,87,0.00,,,0.02,weatherlink.com 1.10,2013-09-16 15:23:00,
2013-09-16 10:38:00,59.9,56.0,30.32,North,5,2.0,12.0,87,0.00,,,0.02,weatherlink.com 1.10,2013-09-16 15:38:00,
2013-09-16 10:53:00,60.5,56.0,30.32,North,5,4.0,10.0,84,0.00,,,0.02,weatherlink.com 1.10,2013-09-16 15:53:00,
2013-09-16 11:08:00,60.9,56.0,30.34,North,351,3.0,9.0,83,0.00,,,0.02,weatherlink.com 1.10,2013-09-16 16:08:00,
2013-09-16 11:23:00,61.5,56.0,30.33,NE,47,1.0,8.0,82,0.00,,,0.02,weatherlink.com 1.10,2013-09-16 16:23:00,
2013-09-16 11:38:00,61.5,56.0,30.33,NNE,20,3.0,7.0,81,0.00,,,0.02,weatherlink.com 1.10,2013-09-16 16:38:00,
2013-09-16 11:53:00,62.4,55.0,30.34,North,355,1.0,8.0,78,0.00,,,0.02,weatherlink.com 1.10,2013-09-16 16:53:00,
2013-09-16 12:08:00,63.4,56.0,30.34,NNE,31,2.0,9.0,76,0.00,,,0.02,weatherlink.com 1.10,2013-09-16 17:08:00,
2013-09-16 12:23:00,64.3,56.0,30.34,NNE,16,3.0,9.0,74,0.00,,,0.00,weatherlink.com 1.10,2013-09-16 17:23:00,
2013-09-16 12:38:00,65.8,56.0,30.33,NE,37,3.0,9.0,71,0.00,,,0.00,weatherlink.com 1.10,2013-09-16 17:38:00,
2013-09-16 12:53:00,64.9,56.0,30.33,NE,49,5.0,12.0,72,0.00,,,0.00,weatherlink.com 1.10,2013-09-16 17:53:00,
2013-09-16 13:08:00,65.4,56.0,30.33,NE,34,6.0,8.0,72,0.00,,,0.00,weatherlink.com 1.10,2013-09-16 18:08:00,
2013-09-16 13:23:00,66.3,55.0,30.31,NE,40,4.0,10.0,67,0.00,,,0.00,weatherlink.com 1.10,2013-09-16 18:23:00,
2013-09-16 13:39:00,65.7,55.0,30.32,North,5,5.0,9.0,68,0.00,,,0.00,weatherlink.com 1.10,2013-09-16 18:39:00,
2013-09-16 13:53:00,65.6,55.0,30.32,North,5,2.0,9.0,68,0.00,,,0.00,weatherlink.com 1.10,2013-09-16 18:53:00,
2013-09-16 14:08:00,66.8,54.0,30.31,North,355,5.0,11.0,64,0.00,,,0.00,weatherlink.com 1.10,2013-09-16 19:08:00,
2013-09-16 14:23:00,66.1,54.0,30.31,North,5,4.0,10.0,66,0.00,,,0.00,weatherlink.com 1.10,2013-09-16 19:23:00,
2013-09-16 14:38:00,66.9,54.0,30.30,North,5,1.0,10.0,64,0.00,,,0.00,weatherlink.com 1.10,2013-09-16 19:38:00,
2013-09-16 14:53:00,68.0,54.0,30.30,NE,37,3.0,9.0,62,0.00,,,0.00,weatherlink.com 1.10,2013-09-16 19:53:00,
2013-09-16 15:23:00,68.1,54.0,30.29,NNE,21,2.0,11.0,60,0.00,,,0.00,weatherlink.com 1.10,2013-09-16 20:23:00,
2013-09-16 15:38:00,68.4,54.0,30.28,North,9,3.0,8.0,61,0.00,,,0.00,weatherlink.com 1.10,2013-09-16 20:38:00,
2013-09-16 15:53:00,68.0,54.0,30.28,NNE,22,0.0,7.0,62,0.00,,,0.00,weatherlink.com 1.10,2013-09-16 20:53:00,
2013-09-16 16:08:00,68.3,53.0,30.27,NNE,13,3.0,8.0,59,0.00,,,0.00,weatherlink.com 1.10,2013-09-16 21:08:00,
2013-09-16 16:23:00,68.8,55.0,30.27,ENE,62,2.0,5.0,61,0.00,,,0.00,weatherlink.com 1.10,2013-09-16 21:23:00,
2013-09-16 16:38:00,69.2,54.0,30.27,SE,130,2.0,7.0,59,0.00,,,0.00,weatherlink.com 1.10,2013-09-16 21:38:00,
2013-09-16 16:53:00,69.8,53.0,30.27,North,360,4.0,7.0,55,0.00,,,0.00,weatherlink.com 1.10,2013-09-16 21:53:00,
2013-09-16 17:08:00,69.5,53.0,30.27,North,360,3.0,4.0,57,0.00,,,0.00,weatherlink.com 1.10,2013-09-16 22:08:00,
2013-09-16 17:23:00,69.0,53.0,30.26,NE,51,0.0,5.0,58,0.00,,,0.00,weatherlink.com 1.10,2013-09-16 22:23:00,
2013-09-16 17:38:00,69.0,53.0,30.26,NNE,31,4.0,8.0,58,0.00,,,0.00,weatherlink.com 1.10,2013-09-16 22:38:00,
2013-09-16 17:53:00,67.5,53.0,30.26,NE,53,2.0,5.0,61,0.00,,,0.00,weatherlink.com 1.10,2013-09-16 22:53:00,
2013-09-16 18:08:00,66.6,54.0,30.26,NNE,28,0.0,4.0,64,0.00,,,0.00,weatherlink.com 1.10,2013-09-16 23:08:00,
2013-09-16 18:23:00,66.2,54.0,30.26,NNE,13,0.0,6.0,65,0.00,,,0.00,weatherlink.com 1.10,2013-09-16 23:23:00,
2013-09-16 18:38:00,65.5,55.0,30.25,NNE,13,0.0,1.0,68,0.00,,,0.00,weatherlink.com 1.10,2013-09-16 23:38:00,
2013-09-16 18:53:00,64.4,56.0,30.25,NNE,13,0.0,0.0,74,0.00,,,0.00,weatherlink.com 1.10,2013-09-16 23:53:00,
2013-09-16 19:08:00,62.8,55.0,30.25,NNE,13,0.0,1.0,76,0.00,,,0.00,weatherlink.com 1.10,2013-09-17 00:08:00,
2013-09-16 19:23:00,61.6,55.0,30.25,NNE,13,0.0,2.0,78,0.00,,,0.00,weatherlink.com 1.10,2013-09-17 00:23:00,
2013-09-16 19:38:00,60.6,54.0,30.25,NNE,13,0.0,2.0,78,0.00,,,0.00,weatherlink.com 1.10,2013-09-17 00:38:00,
2013-09-16 19:53:00,60.7,53.0,30.25,NE,40,0.0,3.0,77,0.00,,,0.00,weatherlink.com 1.10,2013-09-17 00:53:00,
2013-09-16 20:08:00,60.3,53.0,30.25,NE,37,0.0,3.0,77,0.00,,,0.00,weatherlink.com 1.10,2013-09-17 01:08:00,
2013-09-16 20:24:00,59.7,53.0,30.26,NE,40,0.0,2.0,79,0.00,,,0.00,weatherlink.com 1.10,2013-09-17 01:24:00,
2013-09-16 20:39:00,58.8,53.0,30.26,NE,44,0.0,2.0,81,0.00,,,0.00,weatherlink.com 1.10,2013-09-17 01:39:00,
2013-09-16 20:55:00,57.9,53.0,30.26,ENE,58,0.0,2.0,84,0.00,,,0.00,weatherlink.com 1.10,2013-09-17 01:55:00,
2013-09-16 21:09:00,57.2,53.0,30.26,ENE,58,0.0,1.0,85,0.00,,,0.00,weatherlink.com 1.10,2013-09-17 02:09:00,
2013-09-16 21:24:00,56.6,52.0,30.27,ENE,58,0.0,1.0,84,0.00,,,0.00,weatherlink.com 1.10,2013-09-17 02:24:00,
2013-09-16 21:39:00,55.8,52.0,30.27,ENE,58,0.0,1.0,87,0.00,,,0.00,weatherlink.com 1.10,2013-09-17 02:39:00,
2013-09-16 21:54:00,55.0,52.0,30.27,ENE,58,0.0,0.0,89,0.00,,,0.00,weatherlink.com 1.10,2013-09-17 02:54:00,
2013-09-16 22:09:00,54.6,52.0,30.28,ENE,57,0.0,2.0,90,0.00,,,0.00,weatherlink.com 1.10,2013-09-17 03:09:00,
2013-09-16 22:24:00,54.2,52.0,30.28,ENE,57,0.0,1.0,91,0.00,,,0.00,weatherlink.com 1.10,2013-09-17 03:24:00,
2013-09-16 22:39:00,54.4,52.0,30.28,North,360,0.0,4.0,90,0.00,,,0.00,weatherlink.com 1.10,2013-09-17 03:39:00,
2013-09-16 22:54:00,54.8,51.0,30.29,North,5,0.0,2.0,87,0.00,,,0.00,weatherlink.com 1.10,2013-09-17 03:54:00,
2013-09-16 23:09:00,54.9,50.0,30.29,SW,218,4.0,4.0,84,0.00,,,0.00,weatherlink.com 1.10,2013-09-17 04:09:00,
2013-09-16 23:24:00,55.2,50.0,30.30,NNE,33,0.0,5.0,82,0.00,,,0.00,weatherlink.com 1.10,2013-09-17 04:24:00,
2013-09-16 23:39:00,55.1,49.0,30.30,NE,48,0.0,6.0,81,0.00,,,0.00,weatherlink.com 1.10,2013-09-17 04:39:00,
2013-09-16 23:54:00,54.6,49.0,30.30,NW,323,3.0,5.0,81,0.00,,,0.00,weatherlink.com 1.10,2013-09-17 04:54:00,